Regional Weather Roundup
Issued by NWS

Home | Current Version | Previous Version | Text Only | Print | Product List | Glossary Off
Versions: 1 2 3 4 5 6 7 8 9 10 11 12 13 14 15 16 17 18 19 20 21 22 23 24 25 26 27 28 29 30 31 32 33 34 35 36 37 38 39 40 41 42 43 44 45 46 47 48 49 50

000
ASUS43 KIND 251359
RWRIN

WEATHER ROUNDUP FOR INDIANA
NATIONAL WEATHER SERVICE INDIANAPOLIS IN
1000 AM EDT FRI JUL 25 2014

NOTE: "FAIR" INDICATES FEW OR NO CLOUDS BELOW 12,000 FEET WITH NO
SIGNIFICANT WEATHER AND/OR OBSTRUCTIONS TO VISIBILITY.

* - STATION DOES NOT REPORT WEATHER SUCH AS PRECIPITATION OR FOG.

+ - STATION NOT QUALITY CONTROLLED BY THE NATIONAL WEATHER SERVICE.
    USE DATA WITH CAUTION...ESPECIALLY DEWPOINT AND RELATIVE
    HUMIDITY OBSERVATIONS.

INZ001>003-010>013-019-020-251500-
NORTHWEST INDIANA

CITY           SKY/WX    TMP DP  RH WIND       PRES   REMARKS
GARY /AIRPORT/ CLOUDY    64  55  72 SW5       30.10F
MONTICELLO +   PTSUNNY   63  58  82 S3        30.12S
RENSSELAER +   MOSUNNY   64  61  88 S6        30.11F
VALPARAISO     CLOUDY    62  55  77 SW7       30.10F

$$

LMZ046-743>745-251500-
SOUTHERN LAKE MICHIGAN

STATION/POSITION TIME  TEMP WIND        PRES
                       AIR  DIR/SP/G
                 (UTC) (F)  (DEG/KT/KT) (MB)
MICHIGAN CITY    1300   62  170/  9/ 12   N/A

$$

INZ004-005-014>016-021>024-251500-
NORTH CENTRAL INDIANA

CITY           SKY/WX    TMP DP  RH WIND       PRES   REMARKS
GOSHEN         CLOUDY    68  57  68 SW6       30.12R
SOUTH BEND     CLOUDY    64  54  69 SW6       30.11F

$$

INZ006>009-017-018-025>027-251500-
NORTHEAST INDIANA

CITY           SKY/WX    TMP DP  RH WIND       PRES   REMARKS
ANGOLA *+      SUNNY     68  59  73 W5        30.12R
FORT WAYNE     PTSUNNY   67  54  63 SW8       30.12R

$$

INZ028-029-035-036-043>045-051>053-251500-
WEST CENTRAL INDIANA

CITY           SKY/WX    TMP DP  RH WIND       PRES   REMARKS
GREENCASTLE +  MOSUNNY   63  55  77 CALM      30.14R
LAFAYETTE      PTSUNNY   66  56  70 CALM      30.12R
TERRE HAUTE    PTSUNNY   68  57  68 SE6       30.12R

$$

INZ030>032-037>040-046>048-054>057-064-065-251500-
CENTRAL INDIANA

CITY           SKY/WX    TMP DP  RH WIND       PRES   REMARKS
ANDERSON       SUNNY     64  55  72 CALM      30.14R
COLUMBUS       SUNNY     64  57  77 CALM      30.12R
INDIANAPOLIS   PTSUNNY   65  54  67 SW6       30.12R
-EAGLE CREEK   CLOUDY    66  54  65 SW3       30.13R
KOKOMO *+      CLOUDY    64  57  77 S3        30.14R
MT COMFORT *+  PTSUNNY   64  63  94 S5        30.13R
SHELBYVILLE    PTSUNNY   67  57  70 CALM      30.12R

$$

INZ033-034-041-042-049-050-058-059-251500-
EAST CENTRAL INDIANA

CITY           SKY/WX    TMP DP  RH WIND       PRES   REMARKS
MUNCIE         PTSUNNY   68  51  54 S5        30.13R

$$

INZ060-061-067>069-081>083-085>088-251500-
SOUTHWEST INDIANA

CITY           SKY/WX    TMP DP  RH WIND       PRES   REMARKS
EVANSVILLE     PTSUNNY   70  57  63 SE5       30.09S
HUNTINGBURG *+ SUNNY     70  57  64 SE6       30.10R

$$

INZ062-063-066-070>080-084-089>092-251500-
SOUTH CENTRAL AND SOUTHEAST INDIANA

CITY           SKY/WX    TMP DP  RH WIND       PRES   REMARKS
BLOOMINGTON    PTSUNNY   68  56  65 S3        30.12R
SEYMOUR +      MOSUNNY   63  45  51 CALM      30.10

$$



USA.gov is the U.S. government's official web portal to all federal, state and local government web resources and services.